Time,TemperatureF,DewpointF,PressureIn,WindDirection,WindDirectionDegrees,WindSpeedMPH,WindSpeedGustMPH,Humidity,HourlyPrecipIn,Conditions,Clouds,dailyrainin,SoftwareType,DateUTC
2015-03-29 00:02:00,23.4,13.3,30.38,SE,143,4.0,5.0,65,0.00,,,0.00,meteohub,2015-03-29 04:02:00,
2015-03-29 00:07:00,23.4,13.3,30.37,SE,139,5.0,5.0,65,0.00,,,0.00,meteohub,2015-03-29 04:07:00,
2015-03-29 00:12:00,23.4,13.6,30.37,SSE,152,5.0,5.0,66,0.00,,,0.00,meteohub,2015-03-29 04:12:00,
2015-03-29 00:17:00,23.2,13.5,30.36,SSE,160,6.0,6.0,66,0.00,,,0.00,meteohub,2015-03-29 04:17:00,
2015-03-29 00:22:00,23.2,13.5,30.36,SSE,152,5.0,5.0,66,0.00,,,0.00,meteohub,2015-03-29 04:22:00,
2015-03-29 00:27:00,23.2,13.5,30.36,SSE,160,6.0,6.0,66,0.00,,,0.00,meteohub,2015-03-29 04:27:00,
2015-03-29 00:32:00,23.2,13.5,30.36,SSE,150,4.0,5.0,66,0.00,,,0.00,meteohub,2015-03-29 04:32:00,
2015-03-29 00:37:00,22.8,13.1,30.36,SSE,158,4.0,5.0,66,0.00,,,0.00,meteohub,2015-03-29 04:37:00,
2015-03-29 00:42:00,22.8,13.1,30.36,SSE,149,4.0,5.0,66,0.00,,,0.00,meteohub,2015-03-29 04:42:00,
2015-03-29 00:47:00,22.8,13.5,30.36,SSE,147,4.0,7.0,67,0.00,,,0.00,meteohub,2015-03-29 04:47:00,
2015-03-29 00:52:00,22.6,13.3,30.36,SE,146,5.0,7.0,67,0.00,,,0.00,meteohub,2015-03-29 04:52:00,
2015-03-29 00:57:00,22.6,13.3,30.36,SSE,149,4.0,7.0,67,0.00,,,0.00,meteohub,2015-03-29 04:57:00,
2015-03-29 01:02:00,22.5,13.5,30.36,SSE,152,4.0,7.0,68,0.00,,,0.00,meteohub,2015-03-29 05:02:00,
2015-03-29 01:07:00,22.5,13.5,30.36,SSE,160,5.0,7.0,68,0.00,,,0.00,meteohub,2015-03-29 05:07:00,
2015-03-29 01:12:00,22.5,13.5,30.36,SSE,155,4.0,7.0,68,0.00,,,0.00,meteohub,2015-03-29 05:12:00,
2015-03-29 01:17:00,22.5,13.5,30.36,South,183,5.0,7.0,68,0.00,,,0.00,meteohub,2015-03-29 05:17:00,
2015-03-29 01:22:00,22.5,13.5,30.36,SSE,155,3.0,7.0,68,0.00,,,0.00,meteohub,2015-03-29 05:22:00,
2015-03-29 01:27:00,22.5,13.5,30.36,SSE,167,4.0,7.0,68,0.00,,,0.00,meteohub,2015-03-29 05:27:00,
2015-03-29 01:32:00,22.3,13.6,30.35,South,169,6.0,7.0,69,0.00,,,0.00,meteohub,2015-03-29 05:32:00,
2015-03-29 01:37:00,22.3,13.6,30.35,SSE,155,4.0,7.0,69,0.00,,,0.00,meteohub,2015-03-29 05:37:00,
2015-03-29 01:42:00,22.3,13.6,30.35,SE,141,7.0,7.0,69,0.00,,,0.00,meteohub,2015-03-29 05:42:00,
2015-03-29 01:47:00,22.3,13.3,30.35,SE,142,5.0,8.0,68,0.00,,,0.00,meteohub,2015-03-29 05:47:00,
2015-03-29 01:52:00,22.5,13.5,30.34,SSE,160,7.0,8.0,68,0.00,,,0.00,meteohub,2015-03-29 05:52:00,
2015-03-29 01:58:00,22.5,13.5,30.34,SE,136,7.0,8.0,68,0.00,,,0.00,meteohub,2015-03-29 05:58:00,
2015-03-29 02:03:00,22.3,13.3,30.34,SE,128,6.0,8.0,68,0.00,,,0.00,meteohub,2015-03-29 06:03:00,
2015-03-29 02:08:00,22.1,13.5,30.33,SE,137,8.0,8.0,69,0.00,,,0.00,meteohub,2015-03-29 06:08:00,
2015-03-29 02:13:00,21.9,13.6,30.33,SE,137,8.0,9.0,70,0.00,,,0.00,meteohub,2015-03-29 06:13:00,
2015-03-29 02:19:00,21.9,13.3,30.33,SE,141,6.0,9.0,69,0.00,,,0.00,meteohub,2015-03-29 06:19:00,
2015-03-29 02:24:00,21.9,13.3,30.33,SSE,155,4.0,9.0,69,0.00,,,0.00,meteohub,2015-03-29 06:24:00,
2015-03-29 02:29:00,21.9,12.9,30.33,SE,136,4.0,9.0,68,0.00,,,0.00,meteohub,2015-03-29 06:29:00,
2015-03-29 02:34:00,21.7,12.6,30.33,SE,146,3.0,9.0,67,0.00,,,0.00,meteohub,2015-03-29 06:34:00,
2015-03-29 02:40:00,21.7,12.6,30.33,SSE,166,2.0,9.0,67,0.00,,,0.00,meteohub,2015-03-29 06:40:00,
2015-03-29 02:45:00,21.6,12.6,30.33,South,169,2.0,9.0,68,0.00,,,0.00,meteohub,2015-03-29 06:45:00,
2015-03-29 02:50:00,21.4,12.7,30.33,SSE,152,3.0,9.0,69,0.00,,,0.00,meteohub,2015-03-29 06:50:00,
2015-03-29 02:55:00,21.2,12.6,30.33,SSE,152,3.0,9.0,69,0.00,,,0.00,meteohub,2015-03-29 06:55:00,
2015-03-29 03:00:00,21.2,12.6,30.33,SE,143,6.0,6.0,69,0.00,,,0.00,meteohub,2015-03-29 07:00:00,
2015-03-29 03:06:00,21.4,12.7,30.33,SSE,150,4.0,5.0,69,0.00,,,0.00,meteohub,2015-03-29 07:06:00,
2015-03-29 03:11:00,21.4,12.7,30.32,SSE,152,5.0,5.0,69,0.00,,,0.00,meteohub,2015-03-29 07:11:00,
2015-03-29 03:16:00,21.6,12.6,30.32,SSE,155,7.0,7.0,68,0.00,,,0.00,meteohub,2015-03-29 07:16:00,
2015-03-29 03:21:00,21.7,12.6,30.32,South,174,4.0,9.0,67,0.00,,,0.00,meteohub,2015-03-29 07:21:00,
2015-03-29 03:27:00,21.7,12.7,30.32,SSE,158,5.0,9.0,68,0.00,,,0.00,meteohub,2015-03-29 07:27:00,
2015-03-29 03:32:00,21.7,12.7,30.32,SSW,194,2.0,9.0,68,0.00,,,0.00,meteohub,2015-03-29 07:32:00,
2015-03-29 03:37:00,21.6,12.9,30.32,SW,214,3.0,9.0,69,0.00,,,0.00,meteohub,2015-03-29 07:37:00,
2015-03-29 03:42:00,21.4,13.1,30.32,SSE,165,4.0,9.0,70,0.00,,,0.00,meteohub,2015-03-29 07:42:00,
2015-03-29 03:47:00,21.4,13.1,30.32,South,179,5.0,7.0,70,0.00,,,0.00,meteohub,2015-03-29 07:47:00,
2015-03-29 03:52:00,21.2,12.9,30.32,SSE,155,4.0,7.0,70,0.00,,,0.00,meteohub,2015-03-29 07:52:00,
2015-03-29 03:58:00,21.2,12.9,30.32,SSE,167,3.0,7.0,70,0.00,,,0.00,meteohub,2015-03-29 07:58:00,
2015-03-29 04:03:00,21.2,12.9,30.31,SSE,158,4.0,7.0,70,0.00,,,0.00,meteohub,2015-03-29 08:03:00,
2015-03-29 04:08:00,21.2,12.9,30.31,SSE,152,5.0,7.0,70,0.00,,,0.00,meteohub,2015-03-29 08:08:00,
2015-03-29 04:13:00,21.4,12.7,30.30,SSE,150,4.0,7.0,69,0.00,,,0.00,meteohub,2015-03-29 08:13:00,
2015-03-29 04:18:00,21.6,12.4,30.30,SSE,160,7.0,7.0,67,0.00,,,0.00,meteohub,2015-03-29 08:18:00,
2015-03-29 04:24:00,21.7,11.8,30.30,SSW,197,5.0,7.0,65,0.00,,,0.00,meteohub,2015-03-29 08:24:00,
2015-03-29 04:29:00,21.9,11.7,30.30,SSE,155,4.0,7.0,64,0.00,,,0.00,meteohub,2015-03-29 08:29:00,
2015-03-29 04:34:00,21.9,11.7,30.30,SSE,166,3.0,10.0,64,0.00,,,0.00,meteohub,2015-03-29 08:34:00,
2015-03-29 04:39:00,21.9,12.0,30.30,SE,144,6.0,10.0,65,0.00,,,0.00,meteohub,2015-03-29 08:39:00,
2015-03-29 04:45:00,21.7,12.2,30.30,SSW,200,6.0,10.0,66,0.00,,,0.00,meteohub,2015-03-29 08:45:00,
2015-03-29 04:50:00,21.9,12.4,30.30,South,169,6.0,10.0,66,0.00,,,0.00,meteohub,2015-03-29 08:50:00,
2015-03-29 04:55:00,21.9,12.6,30.29,SSE,149,5.0,10.0,67,0.00,,,0.00,meteohub,2015-03-29 08:55:00,
2015-03-29 05:00:00,22.1,12.7,30.29,SE,146,4.0,7.0,67,0.00,,,0.00,meteohub,2015-03-29 09:00:00,
2015-03-29 05:06:00,22.1,13.1,30.29,SSE,152,6.0,7.0,68,0.00,,,0.00,meteohub,2015-03-29 09:06:00,
2015-03-29 05:11:00,22.3,13.6,30.28,SSE,155,5.0,7.0,69,0.00,,,0.00,meteohub,2015-03-29 09:11:00,
2015-03-29 05:16:00,22.5,13.8,30.29,SSE,161,6.0,7.0,69,0.00,,,0.00,meteohub,2015-03-29 09:16:00,
2015-03-29 05:22:00,22.5,14.2,30.29,SSW,194,3.0,7.0,70,0.00,,,0.00,meteohub,2015-03-29 09:22:00,
2015-03-29 05:27:00,22.5,14.5,30.29,South,174,6.0,7.0,71,0.00,,,0.00,meteohub,2015-03-29 09:27:00,
2015-03-29 05:32:00,22.5,14.7,30.28,SSE,158,5.0,7.0,72,0.00,,,0.00,meteohub,2015-03-29 09:32:00,
2015-03-29 05:37:00,22.6,14.9,30.28,SE,146,4.0,7.0,72,0.00,,,0.00,meteohub,2015-03-29 09:37:00,
2015-03-29 05:42:00,22.8,15.1,30.28,South,172,7.0,7.0,72,0.00,,,0.00,meteohub,2015-03-29 09:42:00,
2015-03-29 05:47:00,22.8,15.1,30.28,SSE,158,6.0,7.0,72,0.00,,,0.00,meteohub,2015-03-29 09:47:00,
2015-03-29 05:52:00,23.2,15.4,30.27,SE,146,5.0,7.0,72,0.00,,,0.00,meteohub,2015-03-29 09:52:00,
2015-03-29 05:57:00,23.4,15.6,30.27,SSE,152,5.0,7.0,72,0.00,,,0.00,meteohub,2015-03-29 09:57:00,